Regional Weather Roundup
Issued by NWS

Home | Current Version | Previous Version | Graphics & Text | Print | Product List | Glossary On
Versions: 1 2 3 4 5 6 7 8 9 10 11 12 13 14 15 16 17 18 19 20 21 22 23 24 25 26 27 28 29 30 31 32 33 34 35 36 37 38 39 40 41 42 43 44 45 46 47 48 49 50
000
ASUS43 KDMX 240501
RWRIA

WEATHER ROUNDUP FOR IOWA
NATIONAL WEATHER SERVICE DES MOINES IA
1200 AM CDT MON JUL 24 2017

NOTE: "FAIR" INDICATES FEW OR NO CLOUDS BELOW 12,000 FEET WITH NO
SIGNIFICANT WEATHER AND/OR OBSTRUCTIONS TO VISIBILITY.

* - THESE STATIONS ARE NOT NWS STATIONS...THUS NOT UNDER NWS
QUALITY CONTROL.  THEY ALSO DO NOT REPORT WEATHER SUCH
AS PRECIPITATION OR FOG.

IAZ001>003-012>014-020>022-031>034-043>046-240600-
   NORTHWEST IOWA

CITY           SKY/WX    TMP DP  RH WIND       PRES   REMARKS
CARROLL *      CLEAR     63  61  94 N5        30.01R
DENISON *      CLEAR     64  61  88 CALM      30.03R
ORANGE CITY *  CLEAR     66  61  82 NE5       30.03R
SHELDON *      CLEAR     59  57  94 CALM      30.02R
SIOUX CITY     CLEAR     68  62  81 E6        30.01R
SPENCER        CLEAR     59  58  96 NW3       30.02R
STORM LAKE *   CLEAR     63  57  82 N5        30.03R
$$

IAZ055>058-069>071-079>083-090>094-240600-
   SOUTHWEST IOWA

CITY           SKY/WX    TMP DP  RH WIND       PRES   REMARKS
ATLANTIC *     CLEAR     64  63  94 CALM      30.01R
AUDUBON *      CLEAR     63  59  88 CALM      30.02S
CLARINDA *       N/A     66  64  94 NE7       30.01R
COUNCIL BLFS * CLEAR     70  64  83 E9        30.02R
CRESTON *      CLEAR     68  61  77 NE8       30.02R
HARLAN  *      CLEAR     64  63  94 CALM      30.05R
LAMONI         CLEAR     68  62  81 NE6       29.99R
RED OAK *      CLEAR     68  64  88 NE6       30.01R
SHENANDOAH *   CLEAR     66  64  94 CALM      30.00R
$$

IAZ047>049-059>061-072>074-084-240600-
   CENTRAL IOWA

CITY           SKY/WX    TMP DP  RH WIND       PRES   REMARKS
AMES           CLEAR     66  62  87 N6        29.98R
ANKENY *       CLEAR     64  61  88 N3        30.00R
BOONE *        CLEAR     64  59  82 NW6       29.99R
CHARITON *     CLEAR     68  61  77 N5        29.99R
DES MOINES     CLEAR     71  60  68 N3        29.98R
GRINNELL*      CLEAR     64  60  88 W3        29.98R
KNOXVILLE *    CLEAR     68  61  77 NW5       29.97R
MARSHALLTOWN   CLEAR     63  61  93 N8        29.97R
NEWTON *       CLEAR     64  61  88 N5        29.98R
PELLA *          N/A     65  61  87 CALM      29.99R
$$

IAZ004>006-015-016-023>025-035-036-240600-
   NORTH CENTRAL IOWA

CITY           SKY/WX    TMP DP  RH WIND       PRES   REMARKS
ALGONA *       CLEAR     64  63  94 NW5       30.02R
CLARION *      PTCLDY    61  61 100 NE5       30.00R
ESTHERVILLE    CLEAR     60  59  96 NW5       30.01R
FORT DODGE *   CLEAR     63  57  82 CALM      30.01R
MASON CITY     CLEAR     61  59  93 NE6       30.02R
FOREST CITY *    N/A     64  61  88 NE5       30.01R
WEBSTER CITY * CLEAR     61  59  94 N5        29.98R
IOWA FALLS *     N/A     64  61  91 N3        30.01R
$$

IAZ007>011-017>019-026>030-037>042-050>054-066-240600-
   NORTHEAST IOWA

CITY           SKY/WX    TMP DP  RH WIND       PRES   REMARKS
CEDAR RAPIDS   CLEAR     64  64 100 NW5       29.95R
CHARLES CITY * CLEAR     63  63 100 N6        30.00R
DECORAH *      CLEAR     63  59  88 N5        29.98R
DUBUQUE        CLEAR     65  61  87 N7        29.95R
MONTICELLO *   CLEAR     64  63  94 CALM      29.94R
OELWEIN *        N/A    N/A N/A N/A MISG        N/A
WATERLOO       CLEAR     63  60  90 N6        29.97R
$$

IAZ064-065-067-068-078-240600-
   EAST CENTRAL IOWA

CITY           SKY/WX    TMP DP  RH WIND       PRES   REMARKS
DAVENPORT      CLEAR     66  62  87 NW6       29.95R
IOWA CITY      CLEAR     72  62  71 NW6       29.95R
MUSCATINE *    CLEAR     68  63  83 CALM      29.94R
QUAD CITIES    CLEAR     73  60  63 NW3       29.92R
$$

IAZ062-063-075>077-085>089-095>099-240600-
   SOUTHEAST IOWA

CITY           SKY/WX    TMP DP  RH WIND       PRES   REMARKS
BURLINGTON     CLEAR     68  65  90 NW5       29.94R
FAIRFIELD *    CLEAR     66  61  82 NW6       29.95S
FORT MADISON * CLEAR     66  63  88 NW3       29.95S
KEOKUK *       CLEAR     70  63  78 CALM      29.94R
OSKALOOSA *      N/A     64  60  87 N5        29.97S
OTTUMWA        CLEAR     66  61  84 N5        29.97R
WASHINGTON *   CLEAR     66  63  88 NW6       29.96
$$

ABBREVIATIONS USED IN REMARKS
   TC - TEMPERATURES IN CELSIUS
  WCI - WIND CHILL INDEX
   HX - HEAT INDEX
  VSB - VISIBILITY
$$





USA.gov is the U.S. government's official web portal to all federal, state and local government web resources and services.